Starlink 30876

operational
NORAD ID: 58404 Int'l Des: 2023-180 Owner: SPXS Country: US Constellation: starlink
LEOCIRCULAR

Starlink 30876について

説明を読み込み中...

リアルタイム位置

3D地球を読み込み中...

次回通過

高度履歴

Altitude vs Time

uPlot chart will show altitude changes over time

軌道要素

1 58404U 23180C 25300.82091456 .00000666 00000-0 64385-4 0 9998
2 58404 43.0035 58.3882 0001437 271.3322 88.7356 15.02539666107599
Epoch: Oct 27, 2025 • Age: 15 hours

現在のステータス

高度 560.7 km
速度 7.59 km/s
衛星直下点 31.45°N, 2.32°W
打ち上げ日 Nov 22, 2023
運用期間 1.9 years
タイプ internet

技術仕様

分類 Payload
質量 730.00 kg
乾燥質量 700.00 kg
総質量 730.00 kg
長さ 0.30 m
直径 4.10 m
スパン 29.00 m
形状 Box + pan
製造者 SPXS
バスタイプ Starlink V2M
フェーズステータス In Orbit
所有者/国 SPXS/US

大規模コンステレーション

Loading constellations...